Погода в Берёзовском

Россия / Кемеровская область (Кузбасс)     55°40′09″N   86°16′28″E
темп.,
°C
ветер,
м/с
пор.,
м/с
влажн.,
%
обл.,
%
осадки,
мм/ч
давл.,
гПа
погр.,
м
19 мая, ср
ср1901:00+8всв3791100 0.0 1007395
04:00+8св41092100 0.8 1005579
07:00+7св41192100 3.6 1005699
10:00+9св5105024 0.0 1007915
13:00+13ссв673560 0.0 10072024
16:00+11с673899 0.0 10092307
19:00+10с564299 0.0 10102060
22:00+4с31052100 0.0 1012365
20 мая, чт
чт2001:00+1с296919 0.0 1013210
04:000с24740 0.0 101284
07:00+2с366022 0.0 1013286
10:00+5с454896 0.1 10131609
13:00+6с4540100 0.6 10142114
16:00+7с5632100 0.0 10152579
19:00+6с464872 0.0 10161676
22:00+3ссв148491 0.4 1018210
21 мая, пт
пт2101:00+2с41085100 0.5 1019698
04:00+2сз239791 0.3 1020131
07:00+2ссз310756 0.3 1021366
10:00+9с46393 0.0 10221104
13:00+12ссз35295 0.0 10222404
16:00+14сз452596 0.0 10222766
19:00+12зсз343383 0.0 10222288
22:00+6юз2556100 0.0 102497
22 мая, сб
сб2201:00+6юз2857100 0.0 1024188
04:00+5ююз2760100 0.0 1023214
07:00+7ююз3953100 0.0 1023453
10:00+11юз6843100 0.0 10221767
13:00+11юз6950100 0.0 10211591
16:00+6юз51086100 0.2 1022959
19:00+6ююз3991100 0.5 1022829
22:00+6ююз2693100 0.1 1022453
23 мая, вс
вс2301:00+6ю1495100 0.3 1022168
04:00+6ююв1195100 0.0 102231
07:00+7юв1190100 0.0 1023180
10:00+10ююв1275100 0.0 1023555
13:00+14ююз235445 0.0 10221308
16:00+18зюз22435 0.0 10211569
19:00+17юз23485 0.0 10211337
22:00+10ююв22766 0.0 102019